QPF
0.00 0.00 0.00 0.00 0.00 0.00 0.00 0.00 0.00 0.00 0.00 0.00 0.00 0.00 0.00 0.00 0.00 0.00 0.00 0.00 0.00 0.00 0.00 0.00 0.00 0.00 0.00 0.00 0.00 0.00 0.00 0.00 0.00 0.00 0.00 0.00 0.01 0.01 0.01 0.01 0.01 0.01 0.01
0.00 0.00 0.00 0.00 0.00 0.00 0.00 0.00 0.00 0.00 0.00 0.00 0.00 0.00 0.00 0.00 0.00 0.00 0.00 0.00 0.00 0.00 0.00 0.00 0.00 0.00 0.00 0.00 0.00 0.00 0.00 0.00 0.00 0.00 0.00 0.00 0.00 0.01 0.01 0.01 0.01 0.01 0.01
0.00 0.00 0.00 0.00 0.00 0.00 0.00 0.00 0.00 0.00 0.00 0.00 0.00 0.00 0.00 0.00 0.00 0.00 0.00 0.00 0.00 0.00 0.00 0.00 0.00 0.00 0.00 0.00 0.00 0.00 0.00 0.00 0.00 0.00 0.00 0.00 0.00 0.00 0.01 0.01 0.01 0.02 0.02
0.00 0.00 0.00 0.00 0.00 0.00 0.00 0.00 0.00 0.00 0.00 0.00 0.00 0.00 0.00 0.00 0.00 0.00 0.00 0.00 0.00 0.00 0.00 0.00 0.00 0.00 0.00 0.00 0.00 0.00 0.01 0.01 0.00 0.00 0.00 0.00 0.00 0.00 0.01 0.01 0.01 0.02 0.02
0.00 0.00 0.00 0.00 0.00 0.00 0.00 0.00 0.00 0.00 0.00 0.00 0.00 0.00 0.00 0.00 0.00 0.00 0.00 0.00 0.00 0.00 0.00 0.00 0.00 0.00 0.00 0.00 0.00 0.00 0.00 0.00 0.00 0.00 0.00 0.00 0.00 0.00 0.01 0.01 0.02 0.02 0.02
0.00 0.00 0.00 0.00 0.00 0.00 0.00 0.00 0.00 0.00 0.00 0.00 0.00 0.00 0.00 0.00 0.00 0.00 0.00 0.00 0.00 0.00 0.00 0.00 0.00 0.00 0.00 0.00 0.00 0.00 0.00 0.00 0.00 0.00 0.00 0.00 0.00 0.01 0.01 0.01 0.01 0.02 0.02
0.00 0.00 0.00 0.00 0.00 0.00 0.00 0.00 0.00 0.00 0.00 0.00 0.00 0.00 0.00 0.00 0.00 0.00 0.00 0.00 0.00 0.00 0.00 0.00 0.00 0.00 0.00 0.00 0.00 0.00 0.00 0.00 0.00 0.00 0.00 0.01 0.01 0.01 0.01 0.01 0.02 0.02 0.02
0.00 0.00 0.00 0.00 0.00 0.00 0.00 0.00 0.00 0.00 0.00 0.00 0.00 0.00 0.00 0.00 0.00 0.00 0.00 0.00 0.00 0.00 0.00 0.00 0.00 0.00 0.00 0.00 0.00 0.00 0.00 0.00 0.00 0.00 0.00 0.01 0.01 0.01 0.01 0.02 0.02 0.02 0.02
0.00 0.00 0.00 0.00 0.00 0.00 0.00 0.00 0.00 0.00 0.00 0.00 0.00 0.00 0.00 0.00 0.00 0.00 0.00 0.00 0.00 0.00 0.00 0.00 0.00 0.00 0.00 0.00 0.00 0.00 0.00 0.00 0.00 0.00 0.00 0.00 0.01 0.01 0.02 0.02 0.02 0.03 0.03
0.00 0.00 0.00 0.00 0.00 0.00 0.00 0.00 0.00 0.00 0.00 0.01 0.00 0.00 0.00 0.00 0.00 0.00 0.00 0.00 0.00 0.00 0.00 0.00 0.00 0.00 0.00 0.00 0.00 0.00 0.00 0.00 0.00 0.00 0.00 0.00 0.01 0.01 0.02 0.03 0.03 0.03 0.03
0.00 0.00 0.00 0.00 0.00 0.00 0.00 0.00 0.00 0.00 0.00 0.00 0.00 0.00 0.00 0.00 0.00 0.00 0.00 0.00 0.00 0.00 0.00 0.00 0.00 0.00 0.00 0.00 0.00 0.00 0.00 0.00 0.00 0.00 0.00 0.00 0.01 0.01 0.01 0.02 0.02 0.03 0.03
0.00 0.00 0.00 0.00 0.00 0.00 0.00 0.00 0.00 0.00 0.00 0.00 0.00 0.00 0.00 0.00 0.00 0.00 0.00 0.00 0.00 0.00 0.00 0.00 0.00 0.00 0.00 0.00 0.00 0.00 0.00 0.00 0.00 0.00 0.00 0.00 0.00 0.00 0.01 0.01 0.01 0.02 0.03
0.00 0.00 0.00 0.00 0.00 0.00 0.00 0.00 0.00 0.00 0.00 0.00 0.00 0.00 0.00 0.00 0.00 0.00 0.00 0.00 0.00 0.00 0.00 0.00 0.00 0.00 0.00 0.00 0.00 0.00 0.00 0.00 0.00 0.00 0.00 0.00 0.00 0.00 0.01 0.01 0.01 0.02 0.02
0.00 0.00 0.00 0.00 0.00 0.00 0.00 0.00 0.00 0.00 0.00 0.00 0.00 0.00 0.00 0.01 0.01 0.00 0.00 0.00 0.00 0.00 0.00 0.00 0.00 0.00 0.00 0.00 0.00 0.00 0.00 0.00 0.00 0.00 0.00 0.00 0.00 0.00 0.01 0.01 0.01 0.01 0.02
0.00 0.00 0.00 0.00 0.00 0.00 0.00 0.00 0.00 0.00 0.00 0.00 0.00 0.00 0.00 0.00 0.00 0.00 0.00 0.00 0.01 0.01 0.00 0.00 0.00 0.00 0.00 0.00 0.00 0.00 0.00 0.00 0.00 0.00 0.00 0.00 0.00 0.00 0.01 0.01 0.01 0.01 0.02
0.00 0.00 0.00 0.00 0.00 0.00 0.00 0.00 0.00 0.00 0.00 0.00 0.00 0.00 0.00 0.00 0.00 0.00 0.00 0.00 0.00 0.01 0.01 0.00 0.00 0.00 0.00 0.00 0.00 0.00 0.00 0.00 0.00 0.00 0.00 0.00 0.00 0.00 0.01 0.01 0.01 0.01 0.02
0.00 0.00 0.00 0.00 0.00 0.00 0.00 0.00 0.00 0.00 0.00 0.00 0.00 0.00 0.00 0.00 0.00 0.00 0.00 0.00 0.00 0.01 0.01 0.01 0.00 0.00 0.00 0.00 0.00 0.00 0.00 0.00 0.00 0.00 0.00 0.00 0.00 0.00 0.01 0.01 0.01 0.02 0.02
0.01 0.00 0.00 0.00 0.00 0.00 0.00 0.00 0.00 0.00 0.00 0.01 0.01 0.01 0.00 0.00 0.00 0.00 0.00 0.00 0.00 0.01 0.01 0.01 0.01 0.01 0.01 0.00 0.00 0.00 0.00 0.00 0.00 0.00 0.00 0.00 0.00 0.00 0.00 0.01 0.01 0.02 0.01
0.01 0.01 0.01 0.01 0.00 0.00 0.00 0.00 0.00 0.00 0.01 0.01 0.01 0.00 0.01 0.01 0.01 0.01 0.01 0.01 0.01 0.01 0.01 0.01 0.02 0.02 0.01 0.00 0.00 0.00 0.00 0.00 0.00 0.00 0.00 0.00 0.00 0.00 0.00 0.00 0.01 0.01 0.01
0.01 0.01 0.01 0.01 0.00 0.00 0.00 0.00 0.00 0.00 0.00 0.01 0.00 0.00 0.00 0.01 0.01 0.01 0.01 0.01 0.02 0.02 0.02 0.02 0.01 0.01 0.00 0.00 0.00 0.00 0.00 0.00 0.00 0.00 0.00 0.00 0.00 0.00 0.00 0.00 0.01 0.01 0.01
0.01 0.01 0.01 0.01 0.00 0.00 0.00 0.00 0.00 0.00 0.00 0.01 0.01 0.00 0.00 0.01 0.01 0.01 0.01 0.02 0.02 0.02 0.01 0.01 0.01 0.01 0.00 0.00 0.00 0.00 0.00 0.00 0.00 0.00 0.00 0.00 0.00 0.00 0.00 0.00 0.00 0.01 0.01
0.01 0.01 0.01 0.01 0.01 0.00 0.00 0.00 0.01 0.01 0.01 0.01 0.01 0.01 0.01 0.01 0.01 0.01 0.01 0.01 0.01 0.01 0.01 0.01 0.01 0.01 0.01 0.01 0.01 0.01 0.01 0.00 0.00 0.00 0.00 0.00 0.00 0.00 0.00 0.00 0.00 0.00 0.01
0.01 0.01 0.01 0.01 0.02 0.01 0.01 0.01 0.01 0.01 0.01 0.01 0.01 0.01 0.01 0.01 0.01 0.01 0.01 0.01 0.01 0.01 0.01 0.01 0.01 0.01 0.01 0.01 0.01 0.01 0.00 0.00 0.00 0.00 0.00 0.00 0.00 0.00 0.00 0.00 0.00 0.00 0.00
0.00 0.01 0.01 0.01 0.01 0.03 0.04 0.04 0.03 0.03 0.02 0.02 0.01 0.01 0.01 0.00 0.01 0.01 0.01 0.01 0.00 0.00 0.01 0.01 0.01 0.01 0.01 0.01 0.01 0.01 0.01 0.00 0.00 0.00 0.00 0.00 0.00 0.00 0.00 0.00 0.00 0.00 0.00
0.00 0.00 0.00 0.00 0.00 0.01 0.02 0.04 0.05 0.07 0.07 0.06 0.04 0.02 0.01 0.01 0.01 0.01 0.00 0.01 0.01 0.01 0.01 0.01 0.01 0.01 0.01 0.00 0.00 0.00 0.00 0.00 0.00 0.00 0.00 0.00 0.00 0.00 0.00 0.00 0.00 0.00 0.00
0.00 0.00 0.00 0.00 0.00 0.00 0.01 0.01 0.02 0.03 0.04 0.05 0.04 0.03 0.02 0.01 0.01 0.01 0.00 0.01 0.01 0.01 0.00 0.01 0.01 0.00 0.00 0.00 0.00 0.00 0.00 0.00 0.01 0.00 0.00 0.00 0.00 0.00 0.00 0.00 0.00 0.00 0.00
MSLP
1020.12 1020.33 1020.48 1020.60 1020.71 1020.83 1020.96 1021.12 1021.28 1021.44 1021.57 1021.67 1021.71 1021.71 1021.68 1021.60 1021.51 1021.42 1021.33 1021.24 1021.16 1021.08 1021.01 1020.94 1020.88 1020.82 1020.77 1020.71 1020.66 1020.60 1020.54 1020.46 1020.38 1020.29 1020.20 1020.11 1020.00 1019.88 1019.72 1019.53 1019.28 1019.00 1018.68
1019.92 1020.15 1020.34 1020.51 1020.67 1020.84 1021.01 1021.20 1021.38 1021.55 1021.68 1021.77 1021.81 1021.81 1021.77 1021.70 1021.62 1021.53 1021.45 1021.38 1021.32 1021.26 1021.21 1021.16 1021.11 1021.04 1020.98 1020.90 1020.82 1020.73 1020.63 1020.54 1020.45 1020.36 1020.28 1020.20 1020.11 1020.00 1019.85 1019.65 1019.40 1019.11 1018.78
1019.61 1019.87 1020.11 1020.34 1020.57 1020.80 1021.03 1021.25 1021.46 1021.64 1021.77 1021.87 1021.91 1021.91 1021.87 1021.80 1021.72 1021.64 1021.57 1021.51 1021.46 1021.42 1021.38 1021.34 1021.29 1021.24 1021.16 1021.07 1020.97 1020.85 1020.73 1020.62 1020.51 1020.41 1020.33 1020.25 1020.17 1020.06 1019.91 1019.71 1019.46 1019.17 1018.84
1019.22 1019.52 1019.83 1020.13 1020.42 1020.72 1021.01 1021.28 1021.52 1021.71 1021.87 1021.96 1022.01 1022.01 1021.98 1021.92 1021.84 1021.76 1021.68 1021.61 1021.56 1021.52 1021.48 1021.45 1021.41 1021.35 1021.28 1021.19 1021.07 1020.94 1020.80 1020.66 1020.53 1020.42 1020.32 1020.23 1020.14 1020.02 1019.88 1019.68 1019.44 1019.14 1018.82
1018.77 1019.12 1019.49 1019.86 1020.23 1020.60 1020.95 1021.26 1021.54 1021.77 1021.94 1022.06 1022.12 1022.13 1022.11 1022.05 1021.96 1021.87 1021.78 1021.69 1021.61 1021.55 1021.50 1021.46 1021.42 1021.37 1021.30 1021.21 1021.09 1020.95 1020.80 1020.63 1020.48 1020.34 1020.22 1020.11 1020.00 1019.88 1019.73 1019.54 1019.30 1019.01 1018.70
1018.27 1018.67 1019.09 1019.53 1019.97 1020.40 1020.81 1021.18 1021.50 1021.77 1021.97 1022.12 1022.21 1022.25 1022.23 1022.18 1022.09 1021.98 1021.86 1021.73 1021.61 1021.52 1021.44 1021.37 1021.32 1021.27 1021.21 1021.12 1021.00 1020.86 1020.69 1020.51 1020.33 1020.16 1020.01 1019.87 1019.75 1019.61 1019.46 1019.27 1019.05 1018.78 1018.48
1017.73 1018.15 1018.62 1019.11 1019.61 1020.10 1020.57 1020.99 1021.36 1021.67 1021.92 1022.11 1022.24 1022.31 1022.33 1022.29 1022.20 1022.07 1021.91 1021.74 1021.57 1021.42 1021.29 1021.19 1021.12 1021.06 1020.99 1020.91 1020.80 1020.65 1020.48 1020.28 1020.08 1019.89 1019.71 1019.54 1019.40 1019.25 1019.10 1018.92 1018.72 1018.47 1018.19
1017.11 1017.56 1018.06 1018.59 1019.14 1019.68 1020.19 1020.65 1021.07 1021.43 1021.73 1021.98 1022.17 1022.29 1022.35 1022.34 1022.26 1022.11 1021.92 1021.70 1021.48 1021.26 1021.08 1020.94 1020.83 1020.75 1020.67 1020.59 1020.48 1020.34 1020.16 1019.96 1019.74 1019.53 1019.32 1019.14 1018.98 1018.83 1018.69 1018.52 1018.34 1018.12 1017.87
1016.41 1016.88 1017.41 1017.97 1018.54 1019.11 1019.65 1020.15 1020.61 1021.02 1021.38 1021.69 1021.94 1022.13 1022.24 1022.27 1022.21 1022.07 1021.86 1021.61 1021.33 1021.07 1020.83 1020.64 1020.49 1020.38 1020.29 1020.20 1020.08 1019.94 1019.76 1019.55 1019.33 1019.11 1018.90 1018.71 1018.54 1018.40 1018.26 1018.12 1017.95 1017.76 1017.53
1015.63 1016.12 1016.67 1017.25 1017.84 1018.42 1018.98 1019.50 1019.99 1020.43 1020.84 1021.21 1021.53 1021.78 1021.96 1022.04 1022.03 1021.91 1021.70 1021.43 1021.13 1020.83 1020.55 1020.32 1020.13 1019.99 1019.87 1019.76 1019.64 1019.49 1019.31 1019.10 1018.88 1018.66 1018.46 1018.27 1018.12 1017.98 1017.86 1017.73 1017.59 1017.42 1017.21
1014.79 1015.31 1015.88 1016.47 1017.07 1017.65 1018.21 1018.73 1019.23 1019.69 1020.13 1020.54 1020.92 1021.24 1021.48 1021.63 1021.67 1021.59 1021.41 1021.16 1020.86 1020.54 1020.24 1019.98 1019.76 1019.59 1019.45 1019.32 1019.18 1019.02 1018.84 1018.63 1018.42 1018.21 1018.02 1017.85 1017.71 1017.59 1017.49 1017.38 1017.25 1017.10 1016.90
1013.92 1014.48 1015.07 1015.67 1016.27 1016.84 1017.38 1017.89 1018.37 1018.83 1019.28 1019.72 1020.13 1020.50 1020.80 1021.02 1021.12 1021.11 1020.99 1020.78 1020.51 1020.21 1019.91 1019.64 1019.41 1019.22 1019.05 1018.89 1018.73 1018.56 1018.37 1018.16 1017.96 1017.76 1017.59 1017.45 1017.33 1017.23 1017.14 1017.04 1016.92 1016.77 1016.58
1013.05 1013.66 1014.27 1014.89 1015.48 1016.03 1016.54 1017.01 1017.46 1017.90 1018.34 1018.77 1019.21 1019.61 1019.96 1020.23 1020.41 1020.47 1020.42 1020.28 1020.07 1019.82 1019.56 1019.31 1019.08 1018.87 1018.68 1018.50 1018.31 1018.12 1017.91 1017.71 1017.51 1017.33 1017.18 1017.05 1016.96 1016.87 1016.80 1016.70 1016.58 1016.43 1016.23
1012.21 1012.86 1013.51 1014.13 1014.71 1015.24 1015.71 1016.14 1016.55 1016.95 1017.36 1017.78 1018.21 1018.62 1019.01 1019.33 1019.57 1019.71 1019.75 1019.70 1019.57 1019.39 1019.19 1018.98 1018.76 1018.56 1018.35 1018.14 1017.93 1017.71 1017.49 1017.27 1017.08 1016.91 1016.77 1016.67 1016.59 1016.52 1016.44 1016.35 1016.22 1016.05 1015.84
1011.41 1012.10 1012.77 1013.40 1013.97 1014.48 1014.92 1015.31 1015.67 1016.03 1016.41 1016.80 1017.21 1017.62 1018.02 1018.38 1018.67 1018.89 1019.01 1019.05 1019.02 1018.94 1018.81 1018.65 1018.47 1018.28 1018.06 1017.84 1017.60 1017.35 1017.11 1016.88 1016.68 1016.51 1016.38 1016.29 1016.22 1016.15 1016.08 1015.97 1015.83 1015.65 1015.43
1010.63 1011.36 1012.05 1012.68 1013.25 1013.74 1014.16 1014.53 1014.86 1015.19 1015.53 1015.90 1016.28 1016.69 1017.09 1017.47 1017.80 1018.07 1018.27 1018.40 1018.47 1018.47 1018.42 1018.33 1018.20 1018.02 1017.82 1017.58 1017.32 1017.05 1016.78 1016.54 1016.32 1016.16 1016.03 1015.94 1015.87 1015.80 1015.71 1015.60 1015.44 1015.25 1015.01
1009.87 1010.61 1011.31 1011.95 1012.52 1013.01 1013.43 1013.80 1014.13 1014.45 1014.78 1015.12 1015.50 1015.88 1016.28 1016.66 1017.01 1017.33 1017.59 1017.79 1017.94 1018.03 1018.06 1018.03 1017.95 1017.81 1017.61 1017.37 1017.10 1016.82 1016.53 1016.27 1016.05 1015.87 1015.74 1015.64 1015.56 1015.49 1015.39 1015.26 1015.09 1014.88 1014.63
1009.12 1009.86 1010.56 1011.20 1011.78 1012.29 1012.73 1013.12 1013.48 1013.82 1014.16 1014.51 1014.87 1015.24 1015.63 1016.00 1016.36 1016.70 1016.99 1017.25 1017.46 1017.62 1017.72 1017.76 1017.72 1017.62 1017.45 1017.22 1016.95 1016.66 1016.37 1016.10 1015.87 1015.68 1015.54 1015.43 1015.34 1015.25 1015.14 1014.99 1014.80 1014.58 1014.32
1008.37 1009.08 1009.77 1010.42 1011.02 1011.56 1012.05 1012.50 1012.91 1013.29 1013.66 1014.04 1014.41 1014.78 1015.15 1015.51 1015.86 1016.20 1016.51 1016.80 1017.05 1017.26 1017.42 1017.51 1017.52 1017.46 1017.32 1017.12 1016.86 1016.58 1016.30 1016.03 1015.79 1015.60 1015.45 1015.33 1015.23 1015.12 1014.98 1014.81 1014.61 1014.37 1014.10
1007.62 1008.31 1008.99 1009.64 1010.26 1010.85 1011.40 1011.91 1012.39 1012.85 1013.28 1013.68 1014.08 1014.45 1014.81 1015.16 1015.50 1015.83 1016.14 1016.44 1016.72 1016.96 1017.16 1017.29 1017.35 1017.34 1017.24 1017.07 1016.85 1016.59 1016.32 1016.07 1015.84 1015.65 1015.49 1015.36 1015.23 1015.10 1014.93 1014.74 1014.50 1014.24 1013.95
1006.89 1007.55 1008.22 1008.88 1009.53 1010.17 1010.78 1011.37 1011.93 1012.45 1012.95 1013.40 1013.82 1014.21 1014.57 1014.91 1015.23 1015.55 1015.86 1016.16 1016.44 1016.71 1016.94 1017.11 1017.22 1017.25 1017.19 1017.07 1016.89 1016.67 1016.44 1016.21 1016.00 1015.82 1015.66 1015.51 1015.36 1015.19 1014.99 1014.75 1014.48 1014.18 1013.86
1006.20 1006.83 1007.49 1008.16 1008.83 1009.51 1010.19 1010.84 1011.48 1012.08 1012.63 1013.14 1013.60 1014.01 1014.37 1014.71 1015.02 1015.33 1015.63 1015.93 1016.23 1016.51 1016.77 1016.98 1017.12 1017.20 1017.19 1017.12 1016.99 1016.82 1016.63 1016.44 1016.26 1016.09 1015.92 1015.76 1015.58 1015.37 1015.12 1014.83 1014.50 1014.15 1013.78
1005.54 1006.16 1006.81 1007.48 1008.18 1008.89 1009.61 1010.33 1011.02 1011.68 1012.29 1012.85 1013.34 1013.78 1014.16 1014.51 1014.83 1015.14 1015.45 1015.76 1016.07 1016.37 1016.65 1016.89 1017.08 1017.19 1017.24 1017.23 1017.15 1017.04 1016.90 1016.74 1016.59 1016.43 1016.27 1016.09 1015.87 1015.62 1015.31 1014.96 1014.56 1014.13 1013.69
1004.91 1005.53 1006.18 1006.86 1007.57 1008.31 1009.05 1009.80 1010.54 1011.24 1011.89 1012.49 1013.03 1013.50 1013.92 1014.30 1014.65 1014.98 1015.31 1015.64 1015.97 1016.29 1016.60 1016.87 1017.09 1017.25 1017.35 1017.38 1017.36 1017.30 1017.21 1017.10 1016.98 1016.83 1016.67 1016.46 1016.21 1015.90 1015.53 1015.09 1014.61 1014.10 1013.57
1004.30 1004.93 1005.59 1006.27 1006.99 1007.73 1008.49 1009.26 1010.02 1010.75 1011.45 1012.09 1012.67 1013.19 1013.66 1014.08 1014.48 1014.85 1015.22 1015.58 1015.95 1016.30 1016.63 1016.93 1017.19 1017.38 1017.52 1017.59 1017.62 1017.61 1017.56 1017.49 1017.38 1017.25 1017.08 1016.85 1016.56 1016.19 1015.75 1015.23 1014.66 1014.05 1013.43
1003.71 1004.35 1005.02 1005.71 1006.43 1007.17 1007.94 1008.71 1009.49 1010.25 1010.98 1011.66 1012.30 1012.88 1013.41 1013.90 1014.35 1014.79 1015.20 1015.61 1016.01 1016.40 1016.76 1017.08 1017.35 1017.57 1017.74 1017.85 1017.91 1017.93 1017.92 1017.87 1017.79 1017.67 1017.48 1017.23 1016.89 1016.46 1015.94 1015.34 1014.68 1013.98 1013.27
Thickness
5686 5684 5682 5681 5679 5677 5674 5672 5670 5667 5665 5662 5659 5657 5654 5651 5648 5645 5642 5640 5637 5634 5631 5628 5625 5621 5617 5613 5609 5605 5601 5597 5594 5591 5587 5584 5581 5579 5577 5575 5573 5571 5570
5684 5681 5679 5677 5675 5673 5670 5668 5666 5663 5660 5657 5655 5652 5649 5646 5643 5641 5638 5635 5632 5628 5625 5622 5619 5615 5611 5608 5603 5599 5595 5591 5587 5584 5581 5578 5575 5572 5570 5567 5565 5564 5563
5681 5678 5676 5673 5671 5669 5666 5664 5661 5658 5655 5653 5650 5647 5644 5642 5639 5636 5633 5630 5626 5623 5619 5616 5613 5609 5605 5601 5598 5593 5589 5585 5581 5578 5574 5571 5568 5565 5563 5560 5558 5556 5555
5679 5676 5673 5670 5668 5665 5663 5660 5656 5653 5650 5647 5644 5642 5639 5637 5634 5631 5628 5625 5621 5617 5614 5610 5606 5602 5598 5595 5591 5587 5583 5579 5575 5571 5568 5564 5561 5558 5556 5553 5551 5549 5547
5676 5673 5671 5668 5665 5662 5659 5656 5652 5649 5646 5642 5640 5637 5635 5632 5629 5626 5623 5620 5616 5612 5608 5604 5599 5595 5591 5588 5584 5580 5576 5572 5568 5564 5561 5557 5554 5551 5548 5546 5543 5541 5539
5674 5671 5668 5665 5662 5659 5655 5652 5648 5645 5641 5638 5635 5632 5629 5627 5624 5621 5618 5614 5611 5606 5602 5598 5593 5589 5584 5580 5577 5573 5569 5565 5561 5557 5554 5551 5547 5544 5541 5538 5535 5533 5530
5672 5669 5666 5663 5660 5656 5653 5649 5645 5641 5636 5633 5629 5625 5624 5622 5619 5616 5612 5609 5605 5601 5597 5592 5587 5582 5578 5573 5569 5565 5562 5558 5554 5550 5547 5543 5540 5537 5533 5530 5527 5524 5521
5671 5668 5665 5661 5658 5654 5649 5646 5642 5637 5632 5629 5625 5620 5617 5615 5614 5611 5607 5603 5599 5595 5590 5586 5581 5576 5572 5567 5562 5558 5554 5550 5547 5543 5539 5536 5532 5529 5526 5522 5518 5515 5511
5669 5667 5663 5660 5656 5652 5648 5643 5640 5635 5629 5623 5621 5618 5612 5610 5606 5604 5600 5597 5593 5588 5584 5579 5575 5570 5565 5560 5555 5551 5547 5543 5539 5535 5532 5528 5524 5520 5516 5512 5508 5504 5500
5667 5664 5662 5658 5654 5650 5646 5642 5638 5633 5628 5621 5615 5612 5609 5606 5601 5598 5594 5590 5586 5582 5578 5573 5568 5564 5559 5554 5549 5544 5540 5535 5531 5527 5523 5519 5515 5511 5507 5502 5497 5492 5488
5664 5662 5659 5656 5652 5648 5645 5640 5635 5631 5627 5621 5614 5608 5602 5597 5594 5591 5588 5584 5579 5576 5571 5567 5562 5557 5552 5547 5542 5537 5532 5528 5523 5519 5514 5510 5505 5501 5496 5490 5485 5480 5475
5662 5660 5657 5654 5651 5646 5642 5638 5633 5628 5624 5619 5614 5608 5602 5596 5589 5584 5581 5576 5572 5569 5565 5560 5556 5551 5546 5540 5535 5530 5525 5520 5515 5510 5505 5500 5495 5490 5484 5478 5472 5467 5461
5661 5659 5655 5652 5648 5645 5640 5635 5630 5626 5621 5616 5611 5605 5600 5596 5590 5583 5577 5571 5565 5561 5557 5553 5549 5544 5539 5533 5528 5523 5517 5511 5506 5501 5496 5490 5484 5478 5472 5466 5460 5454 5448
5663 5659 5654 5650 5646 5642 5637 5632 5627 5623 5618 5613 5608 5602 5596 5591 5586 5580 5574 5566 5559 5554 5549 5546 5542 5537 5532 5526 5520 5514 5509 5503 5497 5492 5486 5480 5473 5467 5460 5454 5447 5441 5435
5660 5656 5652 5647 5643 5639 5634 5629 5624 5620 5615 5609 5604 5598 5593 5587 5581 5576 5569 5563 5556 5550 5545 5540 5534 5530 5524 5518 5512 5506 5500 5494 5488 5482 5476 5470 5463 5456 5449 5442 5435 5429 5423
5658 5653 5649 5644 5639 5635 5630 5625 5621 5616 5611 5606 5600 5593 5588 5582 5576 5570 5563 5557 5551 5545 5539 5534 5527 5522 5516 5509 5503 5496 5490 5484 5478 5472 5466 5460 5452 5445 5438 5431 5424 5418 5412
5654 5650 5646 5641 5636 5632 5627 5622 5618 5613 5607 5601 5595 5589 5584 5577 5571 5564 5557 5551 5544 5538 5532 5527 5520 5514 5507 5500 5494 5487 5481 5475 5468 5462 5456 5450 5443 5436 5428 5421 5414 5407 5402
5651 5647 5642 5638 5633 5629 5624 5620 5615 5609 5603 5598 5592 5585 5579 5572 5565 5559 5552 5545 5539 5532 5526 5520 5512 5505 5498 5492 5485 5478 5471 5465 5459 5453 5446 5440 5433 5426 5419 5411 5404 5398 5392
5648 5643 5639 5635 5631 5626 5621 5617 5612 5606 5601 5595 5589 5582 5576 5568 5561 5554 5547 5541 5534 5527 5519 5512 5505 5497 5489 5482 5475 5468 5462 5455 5449 5443 5436 5429 5422 5415 5408 5401 5394 5388 5382
5644 5640 5636 5632 5628 5623 5618 5613 5608 5602 5596 5590 5584 5579 5572 5565 5558 5551 5543 5536 5528 5520 5512 5504 5497 5488 5480 5473 5465 5459 5453 5447 5440 5433 5426 5419 5412 5405 5398 5391 5385 5379 5372
5641 5637 5632 5627 5623 5618 5614 5609 5603 5597 5591 5584 5578 5573 5567 5561 5555 5547 5540 5531 5522 5513 5505 5497 5489 5480 5472 5463 5456 5450 5443 5438 5431 5424 5416 5410 5403 5396 5388 5381 5374 5368 5363
5635 5631 5627 5623 5619 5615 5611 5605 5599 5592 5585 5579 5573 5566 5560 5554 5548 5541 5534 5527 5518 5508 5499 5490 5481 5473 5465 5457 5449 5441 5433 5427 5422 5417 5406 5400 5392 5385 5379 5372 5365 5359 5353
5629 5626 5622 5618 5615 5611 5605 5600 5593 5587 5580 5574 5568 5561 5554 5548 5541 5533 5526 5519 5511 5504 5496 5486 5476 5467 5459 5452 5443 5434 5424 5415 5409 5405 5396 5390 5382 5374 5369 5362 5356 5349 5343
5622 5619 5616 5612 5609 5604 5599 5594 5587 5580 5573 5567 5562 5555 5548 5541 5534 5526 5518 5509 5501 5494 5487 5480 5471 5463 5454 5445 5436 5427 5417 5408 5400 5393 5385 5377 5372 5365 5359 5352 5345 5339 5333
5615 5613 5609 5605 5602 5598 5592 5587 5580 5572 5565 5559 5553 5547 5541 5534 5528 5520 5510 5501 5493 5485 5477 5471 5463 5454 5446 5437 5428 5418 5407 5399 5391 5384 5375 5366 5362 5356 5350 5343 5335 5329 5323
5608 5605 5600 5597 5594 5590 5584 5579 5572 5566 5558 5551 5545 5539 5534 5527 5521 5513 5504 5495 5485 5477 5469 5461 5453 5445 5436 5428 5419 5410 5400 5390 5381 5373 5367 5357 5350 5342 5340 5335 5327 5320 5313